Date String (YYYY-MM-DD hh:mm:ss) UTC,Instrument flags,absolute air pressure of the measurement (hPa),sample flow rate (lpm),inlet stack bypass flow (lpm),air temperature of the measurement (°C),ambient temperature measured by the external sensor (°C),aerosol sample conditioner tube jacket temperature (°C),OPC LED temperature (°C),internal box temperature (°C),relative humidity of the measurement (%),span deviation,mass concentration of particles derived from Lorenz-Mie calculation of OPC scattering (μg/m³),mass concentration of particles derived from Lorenz-Mie calculation of OPC scattering (μg/m³),mass concentration of particles derived from Lorenz-Mie calculation of OPC scattering (μg/m³)
DateTimeUTC,F1_M11,P_M11,Q1_M11,Q2_M11,T1_M11,T2_M11,T3_M11,T4_M11,T5_M11,U1_M11,ZSPAN_M11,X0_M11,X2_M11,X1_M11
2023-06-29 10:00:00,SystemResetWarning,0832.0,5.00,000.00,029.5,027.9,000.0,038.1,031.1,32.2,0000.0,0010.94,0005.37,0004.41
2023-06-29 10:01:00,SystemResetWarning,0832.1,5.00,000.00,029.5,028.0,000.0,038.1,031.1,32.2,0000.0,0011.56,0005.41,0004.41
2023-06-29 10:02:00,SystemResetWarning,0832.1,5.00,000.00,029.5,028.1,000.0,038.1,031.1,32.1,0000.0,0012.26,0005.42,0004.39
2023-06-29 10:03:00,SystemResetWarning,0832.2,5.00,000.00,029.6,028.2,000.0,038.1,031.1,32.0,0000.0,0012.61,0005.42,0004.37
2023-06-29 10:04:00,SystemResetWarning,0832.2,5.00,000.00,029.6,028.3,000.0,038.1,031.2,32.0,0000.0,0012.89,0005.39,0004.36
2023-06-29 10:05:00,SystemResetWarning,0832.2,5.00,000.00,029.6,028.4,000.0,038.1,031.2,32.0,0000.0,0012.44,0005.38,0004.35
2023-06-29 10:06:00,SystemResetWarning,0832.2,5.00,000.00,029.6,028.5,000.0,038.1,031.3,32.0,0000.0,0012.58,0005.41,0004.34
2023-06-29 10:07:00,SystemResetWarning,0832.2,5.00,000.00,029.7,028.5,000.0,038.2,031.2,32.0,0000.0,0012.51,0005.41,0004.33
2023-06-29 10:08:00,SystemResetWarning,0832.2,5.00,000.00,029.7,028.6,000.0,038.2,031.3,32.0,0000.0,0012.21,0005.40,0004.32
2023-06-29 10:09:00,SystemResetWarning,0832.2,5.00,000.00,029.7,028.6,000.0,038.2,031.3,32.0,0000.0,0011.79,0005.41,0004.32
2023-06-29 10:10:00,SystemResetWarning,0832.2,5.00,000.00,029.7,028.6,000.0,038.2,031.3,31.9,0000.0,0011.51,0005.38,0004.31
2023-06-29 10:11:00,SystemResetWarning,0832.2,5.00,000.00,029.8,028.7,000.0,038.2,031.4,31.9,0000.0,0011.73,0005.38,0004.31
2023-06-29 10:12:00,SystemResetWarning,0832.2,5.00,000.00,029.8,028.7,000.0,038.3,031.4,31.9,0000.0,0011.26,0005.35,0004.31
2023-06-29 10:13:00,SystemResetWarning,0832.2,4.99,000.00,029.8,028.1,000.0,038.2,031.4,31.9,0000.0,0010.70,0005.37,0004.31
2023-06-29 10:14:00,SystemResetWarning,0832.2,4.99,000.00,029.8,026.2,000.0,038.1,031.1,32.0,0000.0,0011.60,0005.34,0004.31
2023-06-29 10:15:00,SystemResetWarning,0832.2,5.01,000.00,029.7,025.3,000.0,038.0,030.9,32.1,0000.0,0011.96,0005.39,0004.32
2023-06-29 10:16:00,SystemResetWarning,0832.1,5.01,000.00,029.5,025.4,000.0,038.1,030.6,32.4,0000.0,0012.00,0005.39,0004.34
2023-06-29 10:17:00,SystemResetWarning,0832.1,4.99,000.00,029.4,025.8,000.0,038.1,030.6,32.6,0000.0,0011.88,0005.39,0004.34
2023-06-29 10:18:00,SystemResetWarning,0832.1,5.00,000.00,029.4,026.2,000.0,038.1,030.7,32.6,0000.0,0012.01,0005.38,0004.34
2023-06-29 10:19:00,SystemResetWarning,0832.1,5.00,000.00,029.4,026.6,000.0,038.1,030.8,32.6,0000.0,0012.11,0005.36,0004.34
2023-06-29 10:20:00,SystemResetWarning,0832.0,5.00,000.00,029.4,027.0,000.0,038.1,030.9,32.6,0000.0,0012.43,0005.36,0004.36
2023-06-29 10:21:00,SystemResetWarning,0832.1,4.99,000.00,029.4,027.2,000.0,038.1,030.9,32.6,0000.0,0012.80,0005.40,0004.39
2023-06-29 10:22:00,SystemResetWarning,0832.1,5.00,000.00,029.4,027.5,000.0,038.1,031.0,32.7,0000.0,0012.75,0005.43,0004.39
2023-06-29 10:23:00,SystemResetWarning,0832.2,5.00,000.00,029.4,027.7,000.0,038.1,031.0,32.6,0000.0,0012.76,0005.50,0004.41
2023-06-29 10:24:00,SystemResetWarning,0832.2,5.00,000.00,029.5,027.9,000.0,038.1,031.0,32.6,0000.0,0012.92,0005.55,0004.44
2023-06-29 10:25:00,SystemResetWarning,0832.2,5.00,000.00,029.5,028.0,000.0,038.1,031.0,32.6,0000.0,0011.95,0005.61,0004.45
2023-06-29 10:26:00,SystemResetWarning,0832.2,5.00,000.00,029.5,028.1,000.0,038.1,031.1,32.6,0000.0,0012.05,0005.60,0004.46
2023-06-29 10:27:00,SystemResetWarning,0832.2,5.01,000.00,029.5,028.2,000.0,038.1,031.1,32.6,0000.0,0012.20,0005.66,0004.46
2023-06-29 10:28:00,SystemResetWarning,0832.2,5.00,000.00,029.6,028.3,000.0,038.1,031.2,32.5,0000.0,0012.49,0005.67,0004.47
2023-06-29 10:29:00,SystemResetWarning,0832.2,5.00,000.00,029.6,028.4,000.0,038.1,031.2,32.4,0000.0,0013.10,0005.74,0004.49
2023-06-29 10:30:00,SystemResetWarning,0832.2,4.99,000.00,029.6,028.5,000.0,038.1,031.2,32.4,0000.0,0013.22,0005.79,0004.50
2023-06-29 10:31:00,SystemResetWarning,0832.2,5.00,000.00,029.7,028.5,000.0,038.1,031.3,32.3,0000.0,0013.10,0005.81,0004.50
2023-06-29 10:32:00,SystemResetWarning,0832.3,5.00,000.00,029.7,028.6,000.0,038.2,031.3,32.3,0000.0,0012.66,0005.78,0004.50
2023-06-29 10:33:00,SystemResetWarning,0832.3,5.00,000.00,029.7,028.6,000.0,038.2,031.3,32.2,0000.0,0012.56,0005.80,0004.52
2023-06-29 10:34:00,SystemResetWarning,0832.3,5.00,000.00,029.7,028.7,000.0,038.2,031.4,32.3,0000.0,0012.36,0005.73,0004.53
2023-06-29 10:35:00,SystemResetWarning,0832.3,5.00,000.00,029.8,028.5,000.0,038.2,031.4,32.2,0000.0,0013.11,0005.71,0004.53
2023-06-29 10:36:00,SystemResetWarning,0832.3,5.00,000.00,029.8,026.9,000.0,038.1,031.2,32.2,0000.0,0013.04,0005.72,0004.55
2023-06-29 10:37:00,SystemResetWarning,0832.3,5.00,000.00,029.7,025.6,000.0,038.0,031.0,32.4,0000.0,0012.88,0005.78,0004.57
2023-06-29 10:38:00,SystemResetWarning,0832.3,5.00,000.00,029.6,025.4,000.0,038.0,030.7,32.6,0000.0,0012.47,0005.76,0004.57
2023-06-29 10:39:00,SystemResetWarning,0832.3,5.02,000.00,029.4,025.7,000.0,038.0,030.6,32.9,0000.0,0012.27,0005.79,0004.58
2023-06-29 10:40:00,SystemResetWarning,0832.3,4.99,000.00,029.4,026.1,000.0,038.0,030.6,33.1,0000.0,0011.92,0005.75,0004.59
2023-06-29 10:41:00,SystemResetWarning,0832.4,4.99,000.00,029.4,026.5,000.0,038.0,030.7,33.1,0000.0,0011.82,0005.77,0004.61
2023-06-29 10:42:00,SystemResetWarning,0832.4,5.01,000.00,029.4,026.8,000.0,038.0,030.8,33.2,0000.0,0011.87,0005.82,0004.62
2023-06-29 10:43:00,SystemResetWarning,0832.5,5.01,000.00,029.4,027.1,000.0,038.0,030.9,33.2,0000.0,0011.98,0005.85,0004.62
2023-06-29 10:44:00,SystemResetWarning,0832.5,5.00,000.00,029.4,027.4,000.0,038.0,030.9,33.1,0000.0,0011.99,0005.83,0004.61
2023-06-29 10:45:00,SystemResetWarning,0832.5,4.99,000.00,029.4,027.6,000.0,038.0,031.0,33.1,0000.0,0012.11,0005.89,0004.62
2023-06-29 10:46:00,SystemResetWarning,0832.5,5.00,000.00,029.4,027.8,000.0,038.0,031.0,33.1,0000.0,0011.23,0005.87,0004.61
2023-06-29 10:47:00,SystemResetWarning,0832.5,5.01,000.00,029.5,027.9,000.0,038.0,031.0,33.1,-000.9,0011.05,0005.85,0004.59
2023-06-29 10:48:00,SystemResetWarning,0832.5,5.01,000.00,029.5,028.1,000.0,038.0,031.1,33.1,-001.6,0010.52,0005.77,0004.58
2023-06-29 10:49:00,SystemResetWarning,0832.5,5.00,000.00,029.5,028.2,000.0,038.0,031.1,33.0,-002.4,0010.48,0005.72,0004.57
2023-06-29 10:50:00,SystemResetWarning,0832.5,4.99,000.00,029.5,028.3,000.0,038.1,031.1,33.0,-002.0,0010.71,0005.72,0004.57
2023-06-29 10:51:00,SystemResetWarning,0832.5,4.99,000.00,029.6,028.3,000.0,038.1,031.2,33.0,-001.0,0010.42,0005.69,0004.54
2023-06-29 10:52:00,SystemResetWarning,0832.5,5.01,000.00,029.6,028.4,000.0,038.1,031.2,33.0,-001.5,0010.24,0005.64,0004.53
2023-06-29 10:53:00,SystemResetWarning,0832.5,5.01,000.00,029.6,028.5,000.0,038.1,031.2,32.8,-001.7,0010.06,0005.59,0004.51
2023-06-29 10:54:00,SystemResetWarning,0832.5,5.01,000.00,029.7,028.5,000.0,038.1,031.3,33.0,-001.6,0010.09,0005.54,0004.49
2023-06-29 10:55:00,SystemResetWarning,0832.5,5.00,000.00,029.7,028.6,000.0,038.2,031.3,33.2,-000.9,0010.25,0005.53,0004.48
2023-06-29 10:56:00,SystemResetWarning,0832.4,4.99,000.00,029.7,028.6,000.0,038.2,031.3,32.8,-000.7,0010.59,0005.53,0004.48
2023-06-29 10:57:00,SystemResetWarning,0832.4,5.00,000.00,029.7,028.7,000.0,038.2,031.4,32.6,0000.1,0011.21,0005.53,0004.48
2023-06-29 10:58:00,SystemResetWarning,0832.4,5.00,000.00,029.8,028.7,000.0,038.2,031.4,32.5,-000.4,0012.20,0005.55,0004.48
2023-06-29 10:59:00,SystemResetWarning,0832.3,4.98,000.00,029.8,027.9,000.0,038.2,031.3,32.4,-000.6,0012.78,0005.55,0004.46
